Regional Weather Roundup
Issued by NWS Portland, ME

Current Version | Previous Version | Graphics & Text | Print | Product List | Glossary On
Versions: 1 2 3 4 5 6 7 8 9 10 11 12 13 14 15 16 17 18 19 20 21 22 23 24 25 26 27 28 29 30 31 32 33 34 35 36 37 38 39 40 41 42 43 44 45 46 47 48 49 50
000
ASUS41 KGYX 241105
RWRGYX
WEATHER ROUNDUP FOR MAINE AND NEW HAMPSHIRE
NATIONAL WEATHER SERVICE GRAY ME
700 AM EDT THU JUL 24 2014

MEZ002-005-006-010-012-015-018-020-021-024-026-027-029-241200-
MAINE

CITY           SKY/WX    TMP DP  RH WIND       PRES   REMARKS
PORTLAND       RAIN      67  65  93 N13       29.80R FOG
SANFORD        CLOUDY    66  63  88 NW7       29.81R
BAR HARBOR     CLOUDY    64  63  94 N8        29.78S
WISCASSET      LGT RAIN  67  65  93 VRB6      29.81R FOG
ROCKLAND       CLOUDY    64  63  94 N6        29.77R
FRYEBURG       CLOUDY    65  63  93 NW3       29.84R
LEWISTONAUBURN CLOUDY    64  61  88 N8        29.82R
AUGUSTA        LGT RAIN  65  62  90 N8        29.82R
WATERVILLE     CLOUDY    64  61  88 N7        29.79R
BANGOR         CLOUDY    64  57  78 N12       29.82R
GREENVILLE       N/A     58  54  86 NW6       29.86R
MILLINOCKET    CLOUDY    61  51  70 N8        29.86R
HOULTON        CLOUDY    57  48  72 N13       29.83R
PRESQUE ISLE   CLOUDY    55  43  62 N8        29.87S
FRENCHVILLE    CLOUDY    50  43  77 NW7       29.87R
CARIBOU        CLOUDY    54  48  80 N5        29.86R
$$

NHZ002-005-008-009-011-012-014-241200-
NEW HAMPSHIRE

CITY           SKY/WX    TMP DP  RH WIND       PRES   REMARKS
PORTSMOUTH     CLOUDY    69  66  92 N10       29.78S
ROCHESTER      CLOUDY    67  64  90 N8        29.80S
NASHUA         PTSUNNY   69  66  90 N7        29.81R
MANCHESTER     CLOUDY    69  64  84 N9        29.79S
CONCORD        CLOUDY    67  64  90 N7        29.82R
LACONIA        CLOUDY    66  61  82 CALM      29.82R
PLYMOUTH       FAIR      64  59  84 W8        29.84R
BERLIN         CLOUDY    62  59  90 MISG      29.88R
WHITEFIELD     CLOUDY    61  57  87 NE3       29.89R
JAFFREY        PTSUNNY   65  63  93 CALM      29.86R
LEBANON        PTSUNNY   65  61  87 N3        29.86R
MT WASHINGTON  PTSUNNY   45  41  87 N6G17       N/A
$$

VTZ005-007-008-241200-
VERMONT

CITY           SKY/WX    TMP DP  RH WIND       PRES   REMARKS
ST JOHNSBURY     N/A     57  55  93 MISG      29.88R
MONTPELIER     PTSUNNY   57  54  89 NW6       29.94R
BURLINGTON     CLOUDY    61  50  67 N7        29.93R
$$

MAZ007-012-024-CTZ003-RIZ002-NYZ038-NYZ072-241200-
SOUTHERN NEW ENGLAND AND NY

CITY           SKY/WX    TMP DP  RH WIND       PRES   REMARKS
BOSTON         PTSUNNY   74  66  76 NW10      29.78S
WORCESTER      CLOUDY    66  63  90 NW8       29.84R
NANTUCKET      FOG       69  68  96 SW5       29.76F VSB 3/4
PROVIDENCE     PTSUNNY   72  68  87 NW6       29.79R
HARTFORD       PTSUNNY   69  64  84 NW9       29.82R
ALBANY         PTSUNNY   65  60  84 N7        29.89R
NEW YORK CITY  PTSUNNY   73  64  73 NW8       29.83R
$$

ANZ081-ANZ082-ANZ150-NHZ014-MEZ023>029-241200-
COASTAL MARINE OBSERVATIONS

STATION/POSITION TIME  TEMP    WIND        PRES    WAVE
                       AIR SEA DIR/SP/G            HT/PER
                 (UTC) (F)     (DEG/KT/KT) (MB)    (FT/S)
MOUNT DESERT ROC 1000   61                 1007.7R
MATINICUS ROCK   1000          320/  9/  9 1007.2R
PORTLAND WX BUOY 1000   65 62   10/ 12/ 14 1008.0R   2/ 8
WELLS            1000   69 63  360/ 15/ 18 1007.5R
ISLE OF SHOALS   1000   69     280/  5/  6 1007.7R
JEFFREYS LEDGE   1000      65                N/A     2/ 8
CASHES LEDGE BUO 1100   68 67  VRB  2/  4  1007.3R   3/ 6
$$

.............KEY..............
   WCI - WIND CHILL
   TC  - TEMPERATURE IN CELSIUS
   VSB - VISIBILITY IN MILES
   HX  - HEAT INDEX
   FAIR- INDICATES FEW OR NO CLOUDS BELOW 12,000 FT, WITH NO
         SIGNIFICANT WEATHER AND/OR OBSTRUCTIONS TO VISIBILITY.




USA.gov is the U.S. government's official web portal to all federal, state and local government web resources and services.